Find Starlink 38374

NORAD ID: 100509 Int'l Des: 2026-197 Owner: SPXS Country: US Constellation: starlink operational

Current View

Loading 3D Globe...

About Starlink 38374

Starlink 38374 (NORAD 100509) is a starlink constellation satellite launched Aug 25, 2026 by SPXS of US. with a mass of 575.00 kg.

Upcoming Passes

Passes for default location (London). Set your location on the main map for personalized predictions.

Altitude History

Loading altitude history...

Two-Line Element Set

1 A0509U 26197H 26249.52853512 .00271137 00000-0 12751-2 0 9992
2 A0509 69.9984 161.4750 0003447 268.3263 91.7545 15.82245635 1781
Epoch: Sep 6, 2026 • Age: 8 hours

Current Status

Altitude 333.1 km
Apogee / Perigee N/A
Velocity 7.71 km/s
Sub-Earth Point 50.38°N, 107°W
Launch Date Aug 25, 2026
Age 12 days
Type internet

Technical Details

Classification Payload
Mass 575.00 kg
Dry Mass 530.00 kg
Total Mass 575.00 kg
Length 0.30 m
Diameter 4.10 m
Span 29.00 m
Shape Box + pan
Manufacturer SPXS
Bus Type Starlink V2MO
Phase Status In Orbit
Owner/State SPXS/US

Most Searched